Weather History for Guatemala Aeropuertola Aurora, Guatemala

Change the Weather History Date:

Tuesday, July 16, 2013

  Actual Average Record
Temperature  
Mean Temperature 71 °F -  
Max Temperature 79 °F 75 °F - ()
Min Temperature 63 °F 60 °F - ()
Cooling Degree Days 6    
Growing Degree Days 21 (Base 50)    
Moisture  
Dew Point 62 °F    
Average Humidity 76    
Maximum Humidity 94    
Minimum Humidity 53    
Precipitation  
Precipitation 0.00 in - - ()
Sea Level Pressure  
Sea Level Pressure 30.20 in    
Wind  
Wind Speed 11 mph ()    
Max Wind Speed 27 mph    
Max Gust Speed -    
Visibility 6.2 miles    
Events      
T = Trace of Precipitation, MM = Missing Value Source: Averaged Metar Reports

Daily Weather History Graph

Daily Weather History Graph

Search for Another Location

Airport:

Trip Planner

Search our weather history database for the weather conditions in past years. The results will help you decide how hot, cold, wet, or windy it might be!

Date:

Astronomy

Jul. 16, 2013 Rise Set
Actual Time 5:41 AM CST 6:35 PM CST
Civil Twilight 5:17 AM CST 6:58 PM CST
Nautical Twilight 4:50 AM CST 7:25 PM CST
Astronomical Twilight 4:22 AM CST 7:53 PM CST
Moon 12:37 PM CST (7/16) No Moon Set
Length of Visible Light 13h 40m
Length of Day
12h 53m
First Quarter, 57% of the Moon is Illuminated
Jul 16
First Quarter
Jul 22
Full
Jul 29
Last Quarter
Aug 6
New
Aug 14
First Quarter

Hourly Weather History & Observations

Time (CST) Temp. Dew Point Humidity Pressure Visibility Wind Dir Wind Speed Gust Speed Precip Events Conditions
12:00 AM 66.2 °F 62.6 °F 88% 30.27 in 6.2 mi NNE 9.2 mph - N/A   Mostly Cloudy
1:00 AM 64.4 °F 62.6 °F 94% 30.24 in 6.2 mi North 11.5 mph - N/A   Mostly Cloudy
2:00 AM 64.4 °F 62.6 °F 94% 30.24 in 6.2 mi NNE 11.5 mph - N/A   Overcast
3:00 AM 64.4 °F 62.6 °F 94% 30.24 in 6.2 mi NNE 11.5 mph - N/A   Overcast
4:00 AM 64.4 °F 62.6 °F 94% 30.24 in 6.2 mi NNE 13.8 mph - N/A   Scattered Clouds
5:00 AM 64.4 °F 60.8 °F 88% 30.24 in 6.2 mi North 11.5 mph - N/A   Overcast
6:00 AM 64 °F 62 °F 90% 29.90 in 25 mi North 26.8 mph - -   Mostly Cloudy
6:00 AM 64.4 °F 62.6 °F 94% 30.24 in 6.2 mi North 13.8 mph - N/A   Mostly Cloudy
7:00 AM 64.4 °F 60.8 °F 88% 30.24 in 6.2 mi North 11.5 mph - N/A   Scattered Clouds
8:00 AM 68.0 °F 62.6 °F 83% 30.24 in 6.2 mi North 11.5 mph - N/A   Scattered Clouds
9:00 AM 69.8 °F 59.0 °F 68% 30.24 in 6.2 mi North 11.5 mph - N/A   Scattered Clouds
10:00 AM 71.6 °F 59.0 °F 64% 30.24 in 6.2 mi North 9.2 mph - N/A   Scattered Clouds
11:00 AM 73.4 °F 60.8 °F 65% 30.24 in 6.2 mi North 11.5 mph - N/A   Scattered Clouds
12:00 PM 74 °F 60 °F 53% 29.90 in 25 mi North 9.2 mph - -   Overcast
12:00 PM 75.2 °F 60.8 °F 61% 30.24 in 6.2 mi North 6.9 mph - N/A   Scattered Clouds
1:00 PM 75.2 °F 59.0 °F 57% 30.24 in 6.2 mi North 13.8 mph - N/A   Scattered Clouds
2:00 PM 77.0 °F 62.6 °F 61% 30.21 in 6.2 mi North 11.5 mph - N/A   Scattered Clouds
3:00 PM 77.0 °F 59.0 °F 54% 30.21 in 6.2 mi North 16.1 mph - N/A   Partly Cloudy
4:00 PM 77.0 °F 59.0 °F 54% 30.18 in 6.2 mi North 13.8 mph - N/A   Partly Cloudy
5:00 PM 77.0 °F 60.8 °F 57% 30.18 in 6.2 mi North 13.8 mph - N/A   Partly Cloudy
6:00 PM 73 °F 62 °F 60% 29.86 in 25 mi North 11.5 mph - -   Overcast
6:00 PM 73.4 °F 62.6 °F 69% 30.21 in 6.2 mi North 11.5 mph - N/A   Scattered Clouds
7:00 PM 71.6 °F 64.4 °F 78% 30.24 in 6.2 mi NNE 13.8 mph - N/A   Scattered Clouds
8:00 PM 68.0 °F 62.6 °F 83% 30.27 in 6.2 mi NNE 11.5 mph - N/A   Scattered Clouds
9:00 PM 68.0 °F 62.6 °F 83% 30.30 in 6.2 mi North 11.5 mph - N/A   Scattered Clouds
10:00 PM 66.2 °F 62.6 °F 88% 30.30 in 6.2 mi NNE 11.5 mph - N/A   Scattered Clouds
11:00 PM 66.2 °F 62.6 °F 88% 30.30 in 6.2 mi NNE 13.8 mph - N/A   Scattered Clouds